Dewpoint
38 38 38 37 36 35 35 36 35 34 30 30 29 26 21 14 12 13 14 15 17 21 22 24 31 34 35 39 37 37 40 41 42 42 40 39 39 40 40 39 39 39 39 39
33 35 37 37 36 37 37 34 32 31 29 29 26 16 12 11 13 13 15 20 21 23 23 29 32 33 34 39 37 36 35 38 40 39 39 39 40 40 39 39 38 38 38 38
32 34 28 27 30 27 27 27 29 29 28 17 13 8 12 15 16 20 23 24 25 27 29 32 34 32 35 37 37 35 36 36 39 40 39 39 39 39 39 40 39 38 37 37
34 30 26 25 19 20 24 24 23 21 16 10 9 15 14 18 23 26 27 27 28 31 33 33 34 33 35 38 38 37 37 36 36 37 38 38 38 37 38 39 38 37 37 36
31 28 27 25 19 18 17 16 14 16 12 11 13 15 18 21 25 28 30 31 32 33 32 31 32 32 31 34 33 32 33 34 35 35 35 37 37 38 38 38 38 38 36 35
33 27 24 20 18 15 12 5 8 29 18 17 21 26 23 24 28 31 31 31 30 31 30 29 29 31 30 30 30 29 32 33 34 34 33 33 35 36 37 37 37 37 36 37
30 30 27 18 17 17 9 19 24 22 20 23 26 28 27 27 28 31 32 31 30 27 26 27 27 29 28 27 28 28 30 32 32 33 33 33 34 36 36 36 37 37 36 39
27 29 25 18 21 19 25 26 21 19 18 23 24 24 25 25 30 30 29 26 25 25 25 26 26 27 26 24 25 27 28 30 32 32 32 32 33 34 35 35 35 35 35 36
22 21 22 21 25 23 19 23 23 23 20 20 23 23 26 28 28 28 26 25 24 23 23 25 25 25 24 24 23 25 27 28 30 32 31 31 33 33 35 35 35 34 33 33
13 11 14 17 20 21 21 22 21 21 20 19 24 26 26 28 28 28 26 25 24 21 21 22 23 24 26 24 23 23 25 26 28 30 32 32 32 32 35 35 34 34 32 32
24 18 17 16 16 17 17 16 16 18 19 22 23 24 27 28 28 28 27 26 24 20 20 20 21 23 25 23 24 23 24 25 28 28 30 32 32 33 33 34 34 33 33 34
24 15 21 19 18 17 18 17 19 18 19 20 22 26 29 29 29 30 28 26 23 20 19 19 21 23 23 24 24 24 24 24 28 28 30 30 31 33 32 31 32 32 33 33
16 17 20 22 23 21 22 23 21 21 21 24 28 29 27 28 29 31 29 26 24 22 21 21 21 24 23 24 26 25 25 26 26 28 28 30 30 31 32 33 32 32 33 33
18 21 24 23 23 23 23 23 25 23 26 31 32 32 30 29 28 30 29 27 26 24 24 23 22 24 24 25 25 26 28 28 29 30 32 32 30 32 32 32 32 33 34 34
22 23 25 25 25 25 27 29 30 29 30 32 33 31 30 29 28 31 36 35 34 28 27 26 24 24 24 27 25 26 27 28 29 30 32 31 31 31 32 31 32 32 34 34
27 26 26 27 28 28 28 28 27 26 27 29 33 35 35 36 36 35 34 36 34 33 34 33 30 30 28 25 24 26 28 29 29 28 29 31 30 29 30 31 31 32 32 33
27 26 28 28 27 27 28 30 30 30 29 29 29 29 28 29 30 32 34 35 35 34 34 32 32 30 28 27 27 27 28 28 27 26 26 27 27 28 28 30 30 31 32 34
28 29 30 32 34 35 35 35 33 31 29 28 28 28 29 29 26 28 30 30 32 32 33 34 33 30 28 29 28 26 25 25 26 26 26 27 26 26 29 29 29 30 31 32
31 31 29 30 31 30 29 28 28 27 30 28 29 27 27 28 25 25 26 26 27 28 29 29 26 28 29 29 25 24 24 23 25 25 26 25 28 26 29 31 28 30 30 32
28 27 26 24 23 23 23 22 21 20 22 23 26 27 24 25 27 25 24 24 28 26 27 26 24 25 29 28 28 23 22 23 23 24 28 24 28 30 29 26 27 30 30 31
26 24 22 21 19 19 23 23 25 22 24 24 22 22 22 23 25 25 22 21 24 28 23 21 19 19 19 20 20 20 21 24 26 24 25 26 28 26 29 30 30 31 30 30
18 17 22 22 18 20 23 18 20 23 23 23 21 22 21 19 19 18 21 17 19 22 19 17 17 18 16 19 18 22 18 19 23 25 25 26 27 28 28 29 28 30 31 30
15 14 13 17 17 12 13 14 21 19 19 19 18 18 15 14 13 14 14 13 14 16 15 17 17 17 18 21 20 22 21 21 22 23 24 25 26 26 26 26 27 28 29 30
15 13 12 12 11 9 9 10 10 10 17 17 17 19 12 14 17 13 14 16 17 19 20 20 21 19 17 21 21 21 21 21 22 24 23 21 26 25 25 26 26 27 28 28
13 11 10 10 9 10 9 9 8 9 8 8 10 11 13 14 17 17 18 18 18 17 18 17 18 18 21 21 21 21 21 21 21 22 21 22 23 24 23 24 25 26 27 27
11 12 11 9 10 9 9 9 9 10 10 12 13 17 17 16 17 18 17 16 16 15 16 19 19 19 20 19 20 20 20 19 20 20 20 21 21 22 23 22 24 25 26 27
11 11 10 9 8 7 10 11 13 14 13 17 16 15 15 18 18 16 16 17 18 17 18 19 19 19 18 18 18 18 19 19 19 19 20 20 20 21 22 23 23 25 26 25
Lifted_Index
2 2 3 4 4 5 4 4 3 3 4 5 6 9 11 12 12 11 11 10 10 10 10 9 9 8 6 5 5 5 4 3 3 3 3 3 3 3 3 3 3 3 3 4
3 3 3 4 5 5 5 4 4 5 5 6 8 10 12 12 12 11 10 9 9 9 8 8 8 7 6 5 5 5 4 4 4 4 3 3 3 3 3 4 4 4 4 4
3 3 4 5 6 6 6 6 6 6 7 9 10 11 12 12 11 9 8 7 7 6 6 7 7 7 6 6 5 5 5 5 4 4 4 4 4 4 5 5 5 5 5 5
3 3 3 5 7 7 7 7 8 9 10 11 12 12 11 10 9 7 6 6 5 5 5 5 6 6 7 6 6 5 5 5 5 5 5 5 5 5 5 6 6 6 6 6
2 2 3 5 8 8 8 8 10 11 12 12 11 11 10 8 7 6 5 5 4 4 5 5 6 7 7 7 7 6 6 6 6 6 5 5 5 6 6 6 6 6 6 6
2 2 3 6 9 10 9 9 11 12 12 11 10 9 7 6 5 4 4 4 4 5 5 5 6 7 7 8 8 7 7 7 7 6 6 6 6 6 6 6 6 6 6 6
2 2 4 7 10 10 9 9 11 11 11 10 8 7 5 4 4 4 4 4 4 5 5 6 6 7 8 8 8 8 8 8 7 7 7 7 7 7 7 7 6 6 5 5
4 4 6 9 11 10 9 10 10 10 9 8 7 5 4 4 3 3 3 3 4 4 5 6 7 7 8 8 8 9 9 8 8 8 8 8 7 7 7 6 6 5 5 5
7 7 9 10 11 10 10 10 9 8 8 7 5 4 4 3 3 3 3 3 4 4 5 6 6 7 7 8 9 9 9 9 8 8 8 8 8 7 7 6 6 5 4 4
10 10 10 11 10 10 9 9 8 7 6 5 5 4 3 3 3 3 3 3 4 5 5 6 6 7 7 8 8 9 9 9 8 8 8 8 8 7 7 6 6 5 5 4
10 10 10 10 9 9 8 8 7 6 6 5 4 3 3 3 3 3 3 3 4 5 6 6 6 6 7 7 8 9 9 9 9 8 8 8 8 7 7 7 6 6 5 5
10 10 10 9 8 8 7 7 6 6 5 4 4 3 3 3 3 3 3 3 4 5 5 6 6 6 7 8 8 8 8 9 9 9 9 8 8 8 7 7 7 7 7 7
10 9 9 8 8 7 6 6 5 5 4 4 3 3 3 3 3 3 3 3 4 4 5 6 6 6 7 7 8 8 8 9 9 9 9 9 9 8 8 7 7 7 7 7
9 9 8 7 7 6 6 5 5 4 4 3 3 2 2 2 2 2 2 3 3 4 4 5 6 6 7 7 8 8 8 8 8 8 9 9 9 9 8 8 7 7 7 8
8 8 7 7 6 6 5 5 5 4 4 3 2 2 2 2 2 2 2 2 3 3 4 5 5 6 7 8 8 8 8 8 8 8 8 8 8 8 8 8 7 7 7 7
7 7 7 7 6 6 5 5 5 4 4 3 3 2 2 2 2 2 2 2 3 3 4 5 5 6 7 8 8 8 8 8 8 8 8 8 8 8 8 8 8 7 7 7
8 8 7 7 7 6 6 6 5 5 4 4 3 3 3 3 3 3 3 4 4 4 5 5 6 6 7 7 8 8 8 8 8 8 8 8 8 8 8 8 8 7 7 7
8 8 8 8 8 7 7 7 6 5 5 4 4 4 4 4 4 4 4 5 5 5 5 5 6 6 7 7 7 8 8 8 8 8 8 8 8 8 8 8 8 8 7 7
9 9 10 10 9 9 9 8 8 7 6 6 5 5 5 5 5 5 6 5 5 5 5 6 6 6 7 7 8 8 8 9 8 8 8 8 8 8 8 8 8 8 8 7
11 11 12 12 12 12 11 10 9 9 8 7 7 6 6 6 6 6 6 6 6 6 7 7 7 7 7 8 8 8 9 9 8 8 8 8 8 8 8 8 8 9 8 8
13 14 14 14 14 13 12 11 10 9 9 9 9 8 8 7 7 7 7 7 7 7 8 8 8 8 8 9 9 9 9 9 8 8 8 8 8 8 8 8 8 9 9 9
15 15 15 15 15 14 12 11 10 10 10 10 10 9 9 9 8 8 8 8 8 8 9 9 9 9 9 10 9 9 9 9 9 8 8 8 8 8 8 8 8 9 9 9
16 16 16 15 15 14 12 11 10 10 10 10 10 10 9 9 9 9 8 8 9 9 9 9 10 10 10 10 10 10 10 9 9 9 8 8 8 8 8 8 9 9 9 9
16 16 16 15 14 13 12 11 10 10 10 10 10 10 9 9 9 9 9 9 9 9 10 10 10 10 10 10 10 10 9 9 9 9 9 9 9 9 9 9 9 9 9 9
17 16 16 15 14 14 12 11 10 10 10 10 9 9 9 9 9 9 9 9 10 10 10 10 10 10 10 10 9 9 9 9 9 9 9 9 9 9 9 9 10 10 10 10
17 16 15 14 14 14 13 12 10 10 10 10 9 10 10 10 10 10 10 10 10 10 10 10 10 10 10 10 9 9 9 9 9 9 9 9 9 9 10 10 10 10 10 10
17 16 15 14 14 14 14 12 10 10 10 10 9 10 10 10 10 11 11 11 11 11 10 10 10 10 10 10 10 9 9 9 9 9 9 9 9 10 10 10 11 11 11 11